Regional Weather Roundup
Issued by NWS

Current Version | Previous Version | Text Only | Print | Product List | Glossary On
Versions: 1 2 3 4 5 6 7 8 9 10 11 12 13 14 15 16 17 18 19 20 21 22 23 24 25 26 27 28 29 30 31 32 33 34 35 36 37 38 39 40 41 42 43 44 45 46 47 48 49 50
000
ASUS45 KABQ 302210
RWRNM
NEW MEXICO REGIONAL WEATHER ROUNDUP
NATIONAL WEATHER SERVICE ALBUQUERQUE NM
400 PM MDT FRI SEP 30 2016

NOTE: "FAIR" MEANS FEW OR NO CLOUDS BELOW 12,000 FEET AGL WITH NO
       SIGNIFICANT WEATHER OR OBSTRUCTIONS TO VISION.

      THIS PRODUCT IS RELEASED AS TWO VERSIONS.  ONE VERSION NEAR
      THE TOP OF THE HOUR CONTAINING PRELIMINARY DATA FROM ALBUQUERQUE
      AND OTHER STATIONS.  A FINAL VERSION WITH ADDITIONAL DATA IS
      ISSUED ABOUT 10 MINUTES AFTER THE HOUR.

NMZ501-503-504-510>518-302300-
NORTHWEST PLATEAU/NORTHCENTRAL MOUNTAINS

CITY           SKY/WX    TMP DP  RH WIND       PRES   REMARKS
FARMINGTON     FAIR      70  45  40 W10G17    30.21F
LOS ALAMOS     FAIR      70  42  36 E6        30.28F
SANTA FE       FAIR      76  43  30 VRB6G20   30.21F
TAOS           FAIR      72  37  28 S6        30.26F
ANGEL FIRE     FAIR      67  35  31 W15       30.34F

$$
NMZ402-403-502-505>509-302300-
WESTCENTRAL MOUNTAINS/SOUTHWEST MOUNTAINS

CITY           SKY/WX    TMP DP  RH WIND       PRES   REMARKS
GALLUP         FAIR      71  42  35 SW9       30.27F
SILVER CITY    FAIR      74  54  50 S7        30.23F

$$
NMZ407-409-411-412-302300-
SOUTHERN DESERTS

CITY           SKY/WX    TMP DP  RH WIND       PRES   REMARKS
DEMING         FAIR      76  59  55 SW8       30.17F
LAS CRUCES     FAIR      74  58  57 S6        30.19F
HOLLOMAN AFB   FAIR      74  59  58 S5        30.15F
ALAMOGORDO     FAIR      75  55  50 CALM      30.18F
T OR C         FAIR      76  55  48 S12       30.17F

$$
NMZ519>523-302300-
CENTRAL VALLEYS/CENTRAL HIGHLANDS

CITY           SKY/WX    TMP DP  RH WIND       PRES   REMARKS
ALBUQUERQUE    FAIR      77  50  38 CALM      30.20F
DOUBLE EAGLE   MOSUNNY   75  48  38 VRB7      30.23F
MORIARTY ARPT  FAIR      76  39  26 W5G17     30.23F
CLINES CORNERS FAIR      73  40  30 NW17G28   30.27F
BELEN          FAIR      74  48  39 SE3       30.19F
SOCORRO        FAIR      77  51  40 SE8       30.18F

$$
NMZ524>526-539-540-302300-
SOUTHCENTRAL MOUNTAINS

CITY           SKY/WX    TMP DP  RH WIND       PRES   REMARKS
RUIDOSO        FAIR      68  46  45 N16       30.30S

$$
NMZ527>531-302300-
NORTHEAST HIGHLANDS/NORTHEAST PLAINS

CITY           SKY/WX    TMP DP  RH WIND       PRES   REMARKS
LAS VEGAS      FAIR      76  37  24 SE9       30.21S
RATON          FAIR      77  38  24 SE10      30.14
CLAYTON        CLOUDY    78  48  34 S14       30.11F

$$
NMZ532>537-302300-
EASTCENTRAL PLAINS

CITY           SKY/WX    TMP DP  RH WIND       PRES   REMARKS
TUCUMCARI      FAIR      82  49  31 S20       30.08F
CANNON AFB     PTSUNNY   76  50  39 SW14      30.14F
CLOVIS AIRPORT FAIR      79  52  38 S13       30.14F

$$
NMZ028-029-538-302300-
SOUTHEAST PLAINS

CITY           SKY/WX    TMP DP  RH WIND       PRES   REMARKS
ROSWELL        FAIR      75  54  47 S16       30.14F
ARTESIA        FAIR      75  55  50 SE10      30.13F
CARLSBAD       FAIR      75  55  49 S9        30.12F
HOBBS          PTSUNNY   73  50  43 SE14G20   30.16F


$$




USA.gov is the U.S. government's official web portal to all federal, state and local government web resources and services.